Time,TemperatureF,DewpointF,PressureIn,WindDirection,WindDirectionDegrees,WindSpeedMPH,WindSpeedGustMPH,Humidity,HourlyPrecipIn,Conditions,Clouds,dailyrainin,SoftwareType,DateUTC
2013-08-29 00:00:00,77.2,68.3,30.02,SSE,151,6.0,6.0,74,0.00,,,0.00,Wunderground v.1.15,2013-08-29 05:00:00,
2013-08-29 00:06:00,76.9,68.4,30.03,SSE,156,5.0,8.0,75,0.00,,,0.00,Wunderground v.1.15,2013-08-29 05:06:00,
2013-08-29 00:12:00,76.8,68.3,30.03,SSE,156,6.0,8.0,75,0.00,,,0.00,Wunderground v.1.15,2013-08-29 05:12:00,
2013-08-29 00:18:00,76.6,68.5,30.03,South,169,6.0,8.0,76,0.00,,,0.00,Wunderground v.1.15,2013-08-29 05:18:00,
2013-08-29 00:24:00,76.4,68.7,30.03,South,173,5.0,8.0,77,0.00,,,0.00,Wunderground v.1.15,2013-08-29 05:24:00,
2013-08-29 00:30:00,76.3,68.6,30.03,SE,140,5.0,8.0,77,0.00,,,0.00,Wunderground v.1.15,2013-08-29 05:30:00,
2013-08-29 00:36:00,76.2,68.8,30.03,SSE,167,6.0,8.0,78,0.00,,,0.00,Wunderground v.1.15,2013-08-29 05:36:00,
2013-08-29 00:42:00,76.2,68.8,30.02,SE,143,7.0,8.0,78,0.00,,,0.00,Wunderground v.1.15,2013-08-29 05:42:00,
2013-08-29 00:48:00,76.2,69.2,30.02,SSE,160,7.0,9.0,79,0.00,,,0.00,Wunderground v.1.15,2013-08-29 05:48:00,
2013-08-29 00:54:00,76.1,69.1,30.02,SE,146,6.0,8.0,79,0.00,,,0.00,Wunderground v.1.15,2013-08-29 05:54:00,
2013-08-29 01:00:00,76.0,69.0,30.02,SSE,150,6.0,6.0,79,0.00,,,0.00,Wunderground v.1.15,2013-08-29 06:00:00,
2013-08-29 01:06:00,75.9,69.3,30.02,SSE,162,6.0,9.0,80,0.00,,,0.00,Wunderground v.1.15,2013-08-29 06:06:00,
2013-08-29 01:12:00,75.7,69.1,30.02,SSE,166,5.0,8.0,80,0.00,,,0.00,Wunderground v.1.15,2013-08-29 06:12:00,
2013-08-29 01:18:00,75.4,69.2,30.02,South,169,4.0,8.0,81,0.00,,,0.00,Wunderground v.1.15,2013-08-29 06:18:00,
2013-08-29 01:24:00,75.0,69.1,30.02,South,191,4.0,8.0,82,0.00,,,0.00,Wunderground v.1.15,2013-08-29 06:24:00,
2013-08-29 01:30:00,74.9,69.0,30.01,SSE,151,4.0,8.0,82,0.00,,,0.00,Wunderground v.1.15,2013-08-29 06:30:00,
2013-08-29 01:36:00,74.8,69.3,30.01,SSW,212,4.0,8.0,83,0.00,,,0.00,Wunderground v.1.15,2013-08-29 06:36:00,
2013-08-29 01:42:00,74.6,69.1,30.01,SSE,163,4.0,8.0,83,0.00,,,0.00,Wunderground v.1.15,2013-08-29 06:42:00,
2013-08-29 01:48:00,74.5,69.3,30.01,SE,132,3.0,8.0,84,0.00,,,0.00,Wunderground v.1.15,2013-08-29 06:48:00,
2013-08-29 01:54:00,74.5,69.3,30.01,SE,124,3.0,8.0,84,0.00,,,0.00,Wunderground v.1.15,2013-08-29 06:54:00,
2013-08-29 02:00:00,74.4,69.2,30.02,SSE,148,3.0,8.0,84,0.00,,,0.00,Wunderground v.1.15,2013-08-29 07:00:00,
2013-08-29 02:06:00,74.3,69.1,30.02,South,187,3.0,8.0,84,0.00,,,0.00,Wunderground v.1.15,2013-08-29 07:06:00,
2013-08-29 02:12:00,74.1,69.3,30.02,South,169,4.0,8.0,85,0.00,,,0.00,Wunderground v.1.15,2013-08-29 07:12:00,
2013-08-29 02:18:00,73.9,69.1,30.02,SSE,162,3.0,8.0,85,0.00,,,0.00,Wunderground v.1.15,2013-08-29 07:18:00,
2013-08-29 02:24:00,73.6,69.2,30.01,South,170,3.0,8.0,86,0.00,,,0.00,Wunderground v.1.15,2013-08-29 07:24:00,
2013-08-29 02:30:00,73.5,69.1,30.02,South,191,3.0,3.0,86,0.00,,,0.00,Wunderground v.1.15,2013-08-29 07:30:00,
2013-08-29 02:36:00,73.3,69.2,30.02,SSE,165,3.0,8.0,87,0.00,,,0.00,Wunderground v.1.15,2013-08-29 07:36:00,
2013-08-29 02:42:00,73.2,69.1,30.02,SSE,160,3.0,8.0,87,0.00,,,0.00,Wunderground v.1.15,2013-08-29 07:42:00,
2013-08-29 02:48:00,73.1,69.0,30.02,South,177,3.0,8.0,87,0.00,,,0.00,Wunderground v.1.15,2013-08-29 07:48:00,
2013-08-29 02:54:00,73.1,69.3,30.02,SE,143,3.0,8.0,88,0.00,,,0.00,Wunderground v.1.15,2013-08-29 07:54:00,
2013-08-29 03:00:00,73.0,69.2,30.02,South,188,3.0,8.0,88,0.00,,,0.00,Wunderground v.1.15,2013-08-29 08:00:00,
2013-08-29 03:06:00,72.9,69.1,30.02,South,183,3.0,8.0,88,0.00,,,0.00,Wunderground v.1.15,2013-08-29 08:06:00,
2013-08-29 03:12:00,72.8,69.0,30.02,SSE,159,3.0,8.0,88,0.00,,,0.00,Wunderground v.1.15,2013-08-29 08:12:00,
2013-08-29 03:18:00,72.6,69.2,30.02,South,180,3.0,8.0,89,0.00,,,0.00,Wunderground v.1.15,2013-08-29 08:18:00,
2013-08-29 03:24:00,72.6,69.2,30.02,South,173,3.0,8.0,89,0.00,,,0.00,Wunderground v.1.15,2013-08-29 08:24:00,
2013-08-29 03:30:00,72.6,69.2,30.02,SSE,164,3.0,3.0,89,0.00,,,0.00,Wunderground v.1.15,2013-08-29 08:30:00,
2013-08-29 03:36:00,72.6,69.2,30.02,South,185,3.0,8.0,89,0.00,,,0.00,Wunderground v.1.15,2013-08-29 08:36:00,
2013-08-29 03:42:00,72.6,69.2,30.02,SSE,160,2.0,8.0,89,0.00,,,0.00,Wunderground v.1.15,2013-08-29 08:42:00,
2013-08-29 03:48:00,72.5,69.4,30.02,SSE,160,2.0,8.0,90,0.00,,,0.00,Wunderground v.1.15,2013-08-29 08:48:00,
2013-08-29 03:54:00,72.5,69.4,30.02,SSE,158,2.0,8.0,90,0.00,,,0.00,Wunderground v.1.15,2013-08-29 08:54:00,
2013-08-29 04:00:00,72.5,69.4,30.02,SSE,162,2.0,2.0,90,0.00,,,0.00,Wunderground v.1.15,2013-08-29 09:00:00,
2013-08-29 04:06:00,72.6,69.5,30.02,South,191,2.0,8.0,90,0.00,,,0.00,Wunderground v.1.15,2013-08-29 09:06:00,
2013-08-29 04:12:00,72.9,69.5,30.02,South,173,3.0,8.0,89,0.00,,,0.00,Wunderground v.1.15,2013-08-29 09:12:00,
2013-08-29 04:18:00,72.9,69.5,30.02,South,186,3.0,8.0,89,0.00,,,0.00,Wunderground v.1.15,2013-08-29 09:18:00,
2013-08-29 04:24:00,72.8,69.4,30.02,South,187,2.0,8.0,89,0.00,,,0.00,Wunderground v.1.15,2013-08-29 09:24:00,
2013-08-29 04:30:00,72.6,69.5,30.02,South,186,2.0,8.0,90,0.00,,,0.00,Wunderground v.1.15,2013-08-29 09:30:00,
2013-08-29 04:36:00,72.4,69.3,30.02,SSE,158,3.0,8.0,90,0.00,,,0.00,Wunderground v.1.15,2013-08-29 09:36:00,
2013-08-29 04:42:00,72.2,69.1,30.02,SSE,159,2.0,8.0,90,0.00,,,0.00,Wunderground v.1.15,2013-08-29 09:42:00,
2013-08-29 04:48:00,72.0,69.2,30.02,SSE,167,2.0,8.0,91,0.00,,,0.00,Wunderground v.1.15,2013-08-29 09:48:00,
2013-08-29 04:54:00,71.8,69.3,30.02,SSE,157,3.0,8.0,92,0.00,,,0.00,Wunderground v.1.15,2013-08-29 09:54:00,
2013-08-29 05:00:00,71.8,69.3,30.02,South,181,3.0,3.0,92,0.00,,,0.00,Wunderground v.1.15,2013-08-29 10:00:00,
2013-08-29 05:06:00,71.7,69.3,30.02,South,171,2.0,8.0,92,0.00,,,0.00,Wunderground v.1.15,2013-08-29 10:06:00,
2013-08-29 05:12:00,71.7,69.3,30.02,SSE,154,2.0,8.0,92,0.00,,,0.00,Wunderground v.1.15,2013-08-29 10:12:00,
2013-08-29 05:18:00,71.7,69.6,30.02,SSE,158,2.0,8.0,93,0.00,,,0.00,Wunderground v.1.15,2013-08-29 10:18:00,
2013-08-29 05:24:00,71.7,69.6,30.02,South,170,2.0,8.0,93,0.00,,,0.00,Wunderground v.1.15,2013-08-29 10:24:00,
2013-08-29 05:30:00,71.8,69.3,30.03,South,179,2.0,8.0,92,0.00,,,0.00,Wunderground v.1.15,2013-08-29 10:30:00,
2013-08-29 05:36:00,71.9,69.4,30.02,SSE,165,2.0,8.0,92,0.00,,,0.00,Wunderground v.1.15,2013-08-29 10:36:00,
2013-08-29 05:42:00,71.9,69.4,30.03,SSE,156,2.0,8.0,92,0.00,,,0.00,Wunderground v.1.15,2013-08-29 10:42:00,
2013-08-29 05:48:00,72.1,69.3,30.03,South,182,2.0,8.0,91,0.00,,,0.00,Wunderground v.1.15,2013-08-29 10:48:00,
2013-08-29 05:54:00,72.3,69.2,30.03,SW,236,2.0,8.0,90,0.00,,,0.00,Wunderground v.1.15,2013-08-29 10:54:00,
2013-08-29 06:00:00,72.4,69.0,30.03,SSW,197,2.0,2.0,89,0.00,,,0.00,Wunderground v.1.15,2013-08-29 11:00:00,
2013-08-29 06:06:00,72.6,69.2,30.03,SSW,198,3.0,3.0,89,0.00,,,0.00,Wunderground v.1.15,2013-08-29 11:06:00,
2013-08-29 06:12:00,72.6,69.2,30.03,South,190,3.0,3.0,89,0.00,,,0.00,Wunderground v.1.15,2013-08-29 11:12:00,
2013-08-29 06:18:00,72.6,69.2,30.03,South,181,3.0,4.0,89,0.00,,,0.00,Wunderground v.1.15,2013-08-29 11:18:00,
2013-08-29 06:24:00,72.6,69.2,30.03,SSW,200,3.0,4.0,89,0.00,,,0.00,Wunderground v.1.15,2013-08-29 11:24:00,
2013-08-29 06:30:00,72.7,68.9,30.03,SSW,212,3.0,3.0,88,0.00,,,0.00,Wunderground v.1.15,2013-08-29 11:30:00,
2013-08-29 06:36:00,72.8,69.0,30.03,SW,224,3.0,3.0,88,0.00,,,0.00,Wunderground v.1.15,2013-08-29 11:36:00,
2013-08-29 06:42:00,72.7,68.9,30.03,SW,226,2.0,4.0,88,0.00,,,0.00,Wunderground v.1.15,2013-08-29 11:42:00,
2013-08-29 06:48:00,72.6,69.2,30.03,SW,219,2.0,4.0,89,0.00,,,0.00,Wunderground v.1.15,2013-08-29 11:48:00,
2013-08-29 06:54:00,72.4,69.0,30.03,SSW,203,1.0,2.0,89,0.00,,,0.00,Wunderground v.1.15,2013-08-29 11:54:00,
2013-08-29 07:00:00,72.2,69.1,30.03,SW,219,2.0,3.0,90,0.00,,,0.00,Wunderground v.1.15,2013-08-29 12:00:00,
2013-08-29 07:06:00,72.2,69.1,30.04,SSW,210,2.0,5.0,90,0.00,,,0.00,Wunderground v.1.15,2013-08-29 12:06:00,
2013-08-29 07:12:00,72.2,69.1,30.04,SSW,198,2.0,3.0,90,0.00,,,0.00,Wunderground v.1.15,2013-08-29 12:12:00,
2013-08-29 07:18:00,72.2,69.1,30.04,SSW,198,2.0,3.0,90,0.00,,,0.00,Wunderground v.1.15,2013-08-29 12:18:00,
2013-08-29 07:24:00,72.2,69.1,30.04,WSW,238,1.0,3.0,90,0.00,,,0.00,Wunderground v.1.15,2013-08-29 12:24:00,
2013-08-29 07:30:00,72.2,69.1,30.05,SW,228,1.0,3.0,90,0.00,,,0.00,Wunderground v.1.15,2013-08-29 12:30:00,
2013-08-29 07:36:00,72.2,69.1,30.04,SW,229,1.0,4.0,90,0.00,,,0.00,Wunderground v.1.15,2013-08-29 12:36:00,
2013-08-29 07:42:00,72.4,69.3,30.04,South,181,2.0,3.0,90,0.00,,,0.00,Wunderground v.1.15,2013-08-29 12:42:00,
2013-08-29 07:50:00,72.7,69.3,30.04,SSW,198,2.0,3.0,89,0.00,,,0.00,Wunderground v.1.15,2013-08-29 12:50:00,
2013-08-29 07:56:00,73.0,69.6,30.04,SSW,207,2.0,3.0,89,0.00,,,0.00,Wunderground v.1.15,2013-08-29 12:56:00,
2013-08-29 08:02:00,73.3,69.9,30.05,South,187,3.0,4.0,89,0.00,,,0.00,Wunderground v.1.15,2013-08-29 13:02:00,
2013-08-29 08:10:00,73.9,70.1,30.05,SSW,203,3.0,4.0,88,0.00,,,0.00,Wunderground v.1.15,2013-08-29 13:10:00,
2013-08-29 08:16:00,74.3,70.2,30.05,South,191,3.0,4.0,87,0.00,,,0.00,Wunderground v.1.15,2013-08-29 13:16:00,
2013-08-29 08:26:00,75.2,70.4,30.06,SE,141,2.0,3.0,85,0.00,,,0.00,Wunderground v.1.15,2013-08-29 13:26:00,
2013-08-29 08:34:00,76.2,69.9,30.06,SE,132,2.0,3.0,81,0.00,,,0.00,Wunderground v.1.15,2013-08-29 13:34:00,
2013-08-29 08:42:00,77.1,70.1,30.06,SSW,210,2.0,3.0,79,0.00,,,0.00,Wunderground v.1.15,2013-08-29 13:42:00,
2013-08-29 08:48:00,77.6,69.0,30.06,SSW,210,3.0,3.0,75,0.00,,,0.00,Wunderground v.1.15,2013-08-29 13:48:00,
2013-08-29 08:54:00,78.2,68.8,30.06,South,179,3.0,5.0,73,0.00,,,0.00,Wunderground v.1.15,2013-08-29 13:54:00,
2013-08-29 09:00:00,78.9,69.1,30.06,SSW,193,3.0,3.0,72,0.00,,,0.00,Wunderground v.1.15,2013-08-29 14:00:00,
2013-08-29 09:06:00,78.7,68.5,30.06,SSW,205,3.0,6.0,71,0.00,,,0.00,Wunderground v.1.15,2013-08-29 14:06:00,
2013-08-29 09:12:00,78.1,67.9,30.06,South,188,3.0,3.0,71,0.00,,,0.00,Wunderground v.1.15,2013-08-29 14:12:00,
2013-08-29 09:18:00,77.9,68.1,30.06,SSW,200,3.0,6.0,72,0.00,,,0.00,Wunderground v.1.15,2013-08-29 14:18:00,
2013-08-29 09:24:00,78.9,68.7,30.06,SSW,200,3.0,4.0,71,0.00,,,0.00,Wunderground v.1.15,2013-08-29 14:24:00,
2013-08-29 09:30:00,79.5,68.9,30.06,SSW,195,4.0,4.0,70,0.00,,,0.00,Wunderground v.1.15,2013-08-29 14:30:00,
2013-08-29 09:36:00,80.2,69.1,30.07,South,183,4.0,5.0,69,0.00,,,0.00,Wunderground v.1.15,2013-08-29 14:36:00,
2013-08-29 09:42:00,80.8,69.7,30.07,SSW,211,4.0,4.0,69,0.00,,,0.00,Wunderground v.1.15,2013-08-29 14:42:00,
2013-08-29 09:48:00,81.5,69.5,30.07,SSW,210,4.0,7.0,67,0.00,,,0.00,Wunderground v.1.15,2013-08-29 14:48:00,
2013-08-29 09:54:00,82.2,69.7,30.07,SW,214,4.0,4.0,66,0.00,,,0.00,Wunderground v.1.15,2013-08-29 14:54:00,
2013-08-29 10:00:00,82.8,69.8,30.07,South,180,4.0,4.0,65,0.00,,,0.00,Wunderground v.1.15,2013-08-29 15:00:00,
2013-08-29 10:06:00,83.0,68.6,30.07,SW,218,3.0,4.0,62,0.00,,,0.00,Wunderground v.1.15,2013-08-29 15:06:00,
2013-08-29 10:12:00,83.5,68.6,30.07,SW,219,3.0,7.0,61,0.00,,,0.00,Wunderground v.1.15,2013-08-29 15:12:00,
2013-08-29 10:18:00,84.3,68.9,30.07,SW,219,4.0,7.0,60,0.00,,,0.00,Wunderground v.1.15,2013-08-29 15:18:00,
2013-08-29 10:24:00,84.4,69.0,30.07,SSE,163,4.0,5.0,60,0.00,,,0.00,Wunderground v.1.15,2013-08-29 15:24:00,
2013-08-29 10:30:00,85.6,68.6,30.07,SW,222,3.0,6.0,57,0.00,,,0.00,Wunderground v.1.15,2013-08-29 15:30:00,
2013-08-29 10:36:00,85.0,67.5,30.07,SSE,167,4.0,6.0,56,0.00,,,0.00,Wunderground v.1.15,2013-08-29 15:36:00,
2013-08-29 10:42:00,85.6,67.0,30.06,SSW,203,5.0,6.0,54,0.00,,,0.00,Wunderground v.1.15,2013-08-29 15:42:00,
2013-08-29 10:48:00,85.7,67.1,30.06,SW,222,5.0,6.0,54,0.00,,,0.00,Wunderground v.1.15,2013-08-29 15:48:00,
2013-08-29 10:54:00,85.9,66.8,30.07,West,259,5.0,5.0,53,0.00,,,0.00,Wunderground v.1.15,2013-08-29 15:54:00,
2013-08-29 11:00:00,86.5,67.3,30.07,SSW,203,4.0,4.0,53,0.00,,,0.00,Wunderground v.1.15,2013-08-29 16:00:00,
2013-08-29 11:06:00,87.2,66.9,30.07,SW,229,4.0,7.0,51,0.00,,,0.00,Wunderground v.1.15,2013-08-29 16:06:00,
2013-08-29 11:12:00,86.8,66.5,30.07,SW,215,5.0,8.0,51,0.00,,,0.00,Wunderground v.1.15,2013-08-29 16:12:00,
2013-08-29 11:18:00,86.5,66.8,30.07,SSW,212,4.0,8.0,52,0.00,,,0.00,Wunderground v.1.15,2013-08-29 16:18:00,
2013-08-29 11:24:00,87.4,67.1,30.06,SE,143,4.0,7.0,51,0.00,,,0.00,Wunderground v.1.15,2013-08-29 16:24:00,
2013-08-29 11:30:00,87.4,67.1,30.06,SSW,204,5.0,5.0,51,0.00,,,0.00,Wunderground v.1.15,2013-08-29 16:30:00,
2013-08-29 11:36:00,87.7,66.8,30.06,SSW,192,4.0,9.0,50,0.00,,,0.00,Wunderground v.1.15,2013-08-29 16:36:00,
2013-08-29 11:42:00,88.2,67.2,30.06,WSW,252,5.0,5.0,50,0.00,,,0.00,Wunderground v.1.15,2013-08-29 16:42:00,
2013-08-29 11:48:00,87.8,66.8,30.06,South,179,5.0,5.0,50,0.00,,,0.00,Wunderground v.1.15,2013-08-29 16:48:00,
2013-08-29 11:54:00,88.4,67.4,30.06,South,188,4.0,8.0,50,0.00,,,0.00,Wunderground v.1.15,2013-08-29 16:54:00,
2013-08-29 12:00:00,88.5,66.3,30.05,SSE,162,5.0,5.0,48,0.00,,,0.00,Wunderground v.1.15,2013-08-29 17:00:00,
2013-08-29 12:06:00,88.4,66.2,30.05,SSE,159,6.0,8.0,48,0.00,,,0.00,Wunderground v.1.15,2013-08-29 17:06:00,
2013-08-29 12:12:00,88.6,65.8,30.05,SSW,198,4.0,5.0,47,0.00,,,0.00,Wunderground v.1.15,2013-08-29 17:12:00,
2013-08-29 12:18:00,89.4,66.5,30.05,ESE,123,5.0,6.0,47,0.00,,,0.00,Wunderground v.1.15,2013-08-29 17:18:00,
2013-08-29 12:24:00,89.1,64.3,30.05,SE,132,6.0,6.0,44,0.00,,,0.00,Wunderground v.1.15,2013-08-29 17:24:00,
2013-08-29 12:30:00,88.7,65.3,30.05,SSW,210,4.0,4.0,46,0.00,,,0.00,Wunderground v.1.15,2013-08-29 17:30:00,
2013-08-29 12:36:00,88.4,65.6,30.04,South,173,3.0,5.0,47,0.00,,,0.00,Wunderground v.1.15,2013-08-29 17:36:00,
2013-08-29 12:42:00,88.2,64.8,30.04,SW,224,3.0,4.0,46,0.00,,,0.00,Wunderground v.1.15,2013-08-29 17:42:00,
2013-08-29 12:48:00,89.1,65.6,30.04,SE,146,2.0,4.0,46,0.00,,,0.00,Wunderground v.1.15,2013-08-29 17:48:00,
2013-08-29 12:54:00,88.9,64.8,30.03,SSE,157,2.0,5.0,45,0.00,,,0.00,Wunderground v.1.15,2013-08-29 17:54:00,
2013-08-29 13:00:00,88.5,65.1,30.03,East,100,4.0,6.0,46,0.00,,,0.00,Wunderground v.1.15,2013-08-29 18:00:00,
2013-08-29 13:06:00,88.1,65.3,30.03,ESE,120,4.0,6.0,47,0.00,,,0.00,Wunderground v.1.15,2013-08-29 18:06:00,
2013-08-29 13:12:00,88.5,64.4,30.03,ESE,117,2.0,3.0,45,0.00,,,0.00,Wunderground v.1.15,2013-08-29 18:12:00,
2013-08-29 13:18:00,90.5,64.9,30.02,NNE,23,1.0,3.0,43,0.00,,,0.00,Wunderground v.1.15,2013-08-29 18:18:00,
2013-08-29 13:24:00,90.8,63.9,30.02,WSW,240,2.0,5.0,41,0.00,,,0.00,Wunderground v.1.15,2013-08-29 18:24:00,
2013-08-29 13:30:00,89.9,64.4,30.02,SSW,212,2.0,4.0,43,0.00,,,0.00,Wunderground v.1.15,2013-08-29 18:30:00,
2013-08-29 13:36:00,89.4,64.6,30.02,SE,138,2.0,4.0,44,0.00,,,0.00,Wunderground v.1.15,2013-08-29 18:36:00,
2013-08-29 13:42:00,89.4,64.6,30.02,SSE,149,3.0,4.0,44,0.00,,,0.00,Wunderground v.1.15,2013-08-29 18:42:00,
2013-08-29 13:48:00,89.3,64.5,30.02,ESE,108,3.0,4.0,44,0.00,,,0.00,Wunderground v.1.15,2013-08-29 18:48:00,
2013-08-29 13:54:00,88.9,64.2,30.01,WSW,252,2.0,3.0,44,0.00,,,0.00,Wunderground v.1.15,2013-08-29 18:54:00,
2013-08-29 14:00:00,89.2,63.8,30.01,SW,235,2.0,4.0,43,0.00,,,0.00,Wunderground v.1.15,2013-08-29 19:00:00,
2013-08-29 14:06:00,90.5,64.3,30.01,NW,319,2.0,4.0,42,0.00,,,0.00,Wunderground v.1.15,2013-08-29 19:06:00,
2013-08-29 14:12:00,90.0,63.8,30.00,SE,132,2.0,3.0,42,0.00,,,0.00,Wunderground v.1.15,2013-08-29 19:12:00,
2013-08-29 14:18:00,90.7,63.8,30.00,SSE,153,3.0,5.0,41,0.00,,,0.00,Wunderground v.1.15,2013-08-29 19:18:00,
2013-08-29 14:24:00,90.6,63.7,30.00,ENE,63,3.0,3.0,41,0.00,,,0.00,Wunderground v.1.15,2013-08-29 19:24:00,
2013-08-29 14:30:00,90.8,63.9,30.00,NE,35,1.0,3.0,41,0.00,,,0.00,Wunderground v.1.15,2013-08-29 19:30:00,
2013-08-29 14:36:00,92.4,64.6,30.00,South,181,2.0,4.0,40,0.00,,,0.00,Wunderground v.1.15,2013-08-29 19:36:00,
2013-08-29 14:42:00,92.7,63.4,29.99,ESE,110,4.0,5.0,38,0.00,,,0.00,Wunderground v.1.15,2013-08-29 19:42:00,
2013-08-29 14:48:00,93.9,63.7,29.99,ESE,107,4.0,6.0,37,0.00,,,0.00,Wunderground v.1.15,2013-08-29 19:48:00,
2013-08-29 14:54:00,94.1,63.1,29.99,SSE,167,6.0,10.0,36,0.00,,,0.00,Wunderground v.1.15,2013-08-29 19:54:00,
2013-08-29 15:00:00,93.2,63.1,29.98,ENE,64,7.0,7.0,37,0.00,,,0.00,Wunderground v.1.15,2013-08-29 20:00:00,
2013-08-29 15:06:00,93.7,63.5,29.98,SSW,207,5.0,9.0,37,0.00,,,0.00,Wunderground v.1.15,2013-08-29 20:06:00,
2013-08-29 15:12:00,93.5,62.5,29.98,SE,136,6.0,7.0,36,0.00,,,0.00,Wunderground v.1.15,2013-08-29 20:12:00,
2013-08-29 15:18:00,91.6,62.4,29.98,South,190,5.0,7.0,38,0.00,,,0.00,Wunderground v.1.15,2013-08-29 20:18:00,
2013-08-29 15:24:00,90.7,62.3,29.97,North,6,3.0,4.0,39,0.00,,,0.00,Wunderground v.1.15,2013-08-29 20:24:00,
2013-08-29 15:30:00,90.5,62.9,29.97,ESE,121,1.0,1.0,40,0.00,,,0.00,Wunderground v.1.15,2013-08-29 20:30:00,
2013-08-29 15:36:00,91.3,62.9,29.97,SE,128,1.0,4.0,39,0.00,,,0.00,Wunderground v.1.15,2013-08-29 20:36:00,
2013-08-29 15:42:00,92.1,62.1,29.96,SE,146,3.0,6.0,37,0.00,,,0.00,Wunderground v.1.15,2013-08-29 20:42:00,
2013-08-29 15:48:00,91.4,62.2,29.96,SE,138,2.0,6.0,38,0.00,,,0.00,Wunderground v.1.15,2013-08-29 20:48:00,
2013-08-29 15:54:00,91.3,62.9,29.96,SE,139,1.0,4.0,39,0.00,,,0.00,Wunderground v.1.15,2013-08-29 20:54:00,
2013-08-29 16:00:00,92.8,63.5,29.96,South,177,3.0,3.0,38,0.00,,,0.00,Wunderground v.1.15,2013-08-29 21:00:00,
2013-08-29 16:06:00,93.2,62.3,29.95,SSE,149,4.0,5.0,36,0.00,,,0.00,Wunderground v.1.15,2013-08-29 21:06:00,
2013-08-29 16:12:00,94.0,63.0,29.95,South,188,4.0,7.0,36,0.00,,,0.00,Wunderground v.1.15,2013-08-29 21:12:00,
2013-08-29 16:18:00,93.2,62.3,29.95,SE,133,4.0,7.0,36,0.00,,,0.00,Wunderground v.1.15,2013-08-29 21:18:00,
2013-08-29 16:24:00,92.2,62.2,29.95,SE,145,3.0,4.0,37,0.00,,,0.00,Wunderground v.1.15,2013-08-29 21:24:00,
2013-08-29 16:30:00,92.3,63.0,29.95,ESE,102,1.0,3.0,38,0.00,,,0.00,Wunderground v.1.15,2013-08-29 21:30:00,
2013-08-29 16:36:00,93.7,64.3,29.94,ESE,114,2.0,5.0,38,0.00,,,0.00,Wunderground v.1.15,2013-08-29 21:36:00,
2013-08-29 16:42:00,94.8,62.9,29.94,NE,51,3.0,3.0,35,0.00,,,0.00,Wunderground v.1.15,2013-08-29 21:42:00,
2013-08-29 16:48:00,94.1,62.3,29.94,South,174,3.0,5.0,35,0.00,,,0.00,Wunderground v.1.15,2013-08-29 21:48:00,
2013-08-29 16:54:00,94.7,62.0,29.93,East,96,4.0,4.0,34,0.00,,,0.00,Wunderground v.1.15,2013-08-29 21:54:00,
2013-08-29 17:00:00,94.8,62.9,29.93,SE,146,2.0,3.0,35,0.00,,,0.00,Wunderground v.1.15,2013-08-29 22:00:00,
2013-08-29 17:06:00,93.6,61.8,29.93,SSE,153,3.0,4.0,35,0.00,,,0.00,Wunderground v.1.15,2013-08-29 22:06:00,
2013-08-29 17:12:00,92.4,62.4,29.93,East,82,3.0,4.0,37,0.00,,,0.00,Wunderground v.1.15,2013-08-29 22:12:00,
2013-08-29 17:18:00,91.9,61.9,29.93,SE,141,3.0,5.0,37,0.00,,,0.00,Wunderground v.1.15,2013-08-29 22:18:00,
2013-08-29 17:24:00,91.6,61.6,29.93,ESE,116,2.0,3.0,37,0.00,,,0.00,Wunderground v.1.15,2013-08-29 22:24:00,
2013-08-29 17:30:00,91.9,61.9,29.93,NNE,30,1.0,3.0,37,0.00,,,0.00,Wunderground v.1.15,2013-08-29 22:30:00,
2013-08-29 17:36:00,91.7,62.5,29.93,SE,129,1.0,5.0,38,0.00,,,0.00,Wunderground v.1.15,2013-08-29 22:36:00,
2013-08-29 17:42:00,91.5,63.1,29.93,SE,130,2.0,3.0,39,0.00,,,0.00,Wunderground v.1.15,2013-08-29 22:42:00,
2013-08-29 17:48:00,90.8,62.4,29.93,East,95,2.0,3.0,39,0.00,,,0.00,Wunderground v.1.15,2013-08-29 22:48:00,
2013-08-29 17:54:00,90.6,62.3,29.93,ESE,105,2.0,3.0,39,0.00,,,0.00,Wunderground v.1.15,2013-08-29 22:54:00,
2013-08-29 18:00:00,90.5,62.9,29.93,SE,134,1.0,1.0,40,0.00,,,0.00,Wunderground v.1.15,2013-08-29 23:00:00,
2013-08-29 18:06:00,90.8,63.1,29.92,South,190,0.0,3.0,40,0.00,,,0.00,Wunderground v.1.15,2013-08-29 23:06:00,
2013-08-29 18:12:00,92.0,62.8,29.92,SW,221,1.0,3.0,38,0.00,,,0.00,Wunderground v.1.15,2013-08-29 23:12:00,
2013-08-29 18:18:00,92.5,61.7,29.92,North,7,2.0,3.0,36,0.00,,,0.00,Wunderground v.1.15,2013-08-29 23:18:00,
2013-08-29 18:24:00,93.1,63.0,29.92,SSE,166,1.0,3.0,37,0.00,,,0.00,Wunderground v.1.15,2013-08-29 23:24:00,
2013-08-29 18:30:00,93.4,63.2,29.92,SSE,167,1.0,3.0,37,0.00,,,0.00,Wunderground v.1.15,2013-08-29 23:30:00,
2013-08-29 18:36:00,93.3,62.4,29.93,SSW,194,3.0,6.0,36,0.00,,,0.00,Wunderground v.1.15,2013-08-29 23:36:00,
2013-08-29 18:42:00,93.0,62.9,29.93,SE,145,3.0,3.0,37,0.00,,,0.00,Wunderground v.1.15,2013-08-29 23:42:00,
2013-08-29 18:48:00,93.5,62.5,29.93,SE,143,1.0,3.0,36,0.00,,,0.00,Wunderground v.1.15,2013-08-29 23:48:00,
2013-08-29 18:54:00,93.7,63.5,29.93,SE,129,0.0,3.0,37,0.00,,,0.00,Wunderground v.1.15,2013-08-29 23:54:00,
2013-08-29 19:00:00,93.2,62.3,29.93,SE,138,2.0,4.0,36,0.00,,,0.00,Wunderground v.1.15,2013-08-30 00:00:00,
2013-08-29 19:06:00,92.5,62.4,29.93,ESE,117,3.0,6.0,37,0.00,,,0.00,Wunderground v.1.15,2013-08-30 00:06:00,
2013-08-29 19:12:00,91.9,62.7,29.93,ESE,122,4.0,4.0,38,0.00,,,0.00,Wunderground v.1.15,2013-08-30 00:12:00,
2013-08-29 19:18:00,91.6,62.4,29.93,SE,124,4.0,5.0,38,0.00,,,0.00,Wunderground v.1.15,2013-08-30 00:18:00,
2013-08-29 19:24:00,91.2,62.8,29.92,SE,125,3.0,3.0,39,0.00,,,0.00,Wunderground v.1.15,2013-08-30 00:24:00,
2013-08-29 19:30:00,90.9,62.5,29.93,SE,133,3.0,3.0,39,0.00,,,0.00,Wunderground v.1.15,2013-08-30 00:30:00,
2013-08-29 19:36:00,90.5,62.9,29.93,SE,131,3.0,4.0,40,0.00,,,0.00,Wunderground v.1.15,2013-08-30 00:36:00,
2013-08-29 19:42:00,89.9,63.0,29.93,SE,137,3.0,4.0,41,0.00,,,0.00,Wunderground v.1.15,2013-08-30 00:42:00,
2013-08-29 19:48:00,89.2,63.1,29.93,SE,135,3.0,4.0,42,0.00,,,0.00,Wunderground v.1.15,2013-08-30 00:48:00,
2013-08-29 19:54:00,88.8,63.4,29.93,SE,139,3.0,3.0,43,0.00,,,0.00,Wunderground v.1.15,2013-08-30 00:54:00,
2013-08-29 20:00:00,88.3,63.0,29.94,ESE,118,3.0,3.0,43,0.00,,,0.00,Wunderground v.1.15,2013-08-30 01:00:00,
2013-08-29 20:06:00,87.8,63.2,29.94,ESE,110,2.0,3.0,44,0.00,,,0.00,Wunderground v.1.15,2013-08-30 01:06:00,
2013-08-29 20:12:00,87.4,63.5,29.94,ESE,117,1.0,3.0,45,0.00,,,0.00,Wunderground v.1.15,2013-08-30 01:12:00,
2013-08-29 20:18:00,87.1,63.2,29.94,SE,135,1.0,3.0,45,0.00,,,0.00,Wunderground v.1.15,2013-08-30 01:18:00,
2013-08-29 20:24:00,86.9,63.6,29.94,SE,129,1.0,3.0,46,0.00,,,0.00,Wunderground v.1.15,2013-08-30 01:24:00,
2013-08-29 20:30:00,86.9,63.6,29.94,SE,124,1.0,3.0,46,0.00,,,0.00,Wunderground v.1.15,2013-08-30 01:30:00,
2013-08-29 20:36:00,86.5,63.3,29.94,ESE,120,1.0,3.0,46,0.00,,,0.00,Wunderground v.1.15,2013-08-30 01:36:00,
2013-08-29 20:42:00,86.2,63.6,29.94,ESE,120,1.0,3.0,47,0.00,,,0.00,Wunderground v.1.15,2013-08-30 01:42:00,
2013-08-29 20:48:00,86.2,63.6,29.95,SE,126,2.0,3.0,47,0.00,,,0.00,Wunderground v.1.15,2013-08-30 01:48:00,
2013-08-29 20:54:00,85.9,63.3,29.95,SE,138,2.0,3.0,47,0.00,,,0.00,Wunderground v.1.15,2013-08-30 01:54:00,
2013-08-29 21:00:00,85.7,63.8,29.95,SE,136,2.0,2.0,48,0.00,,,0.00,Wunderground v.1.15,2013-08-30 02:00:00,
2013-08-29 21:10:00,85.8,63.8,29.95,SE,128,2.0,3.0,48,0.00,,,0.00,Wunderground v.1.15,2013-08-30 02:10:00,
2013-08-29 21:16:00,85.9,63.3,29.95,SE,137,2.0,3.0,47,0.00,,,0.00,Wunderground v.1.15,2013-08-30 02:16:00,
2013-08-29 21:22:00,85.9,63.9,29.95,SE,138,3.0,3.0,48,0.00,,,0.00,Wunderground v.1.15,2013-08-30 02:22:00,
2013-08-29 21:28:00,85.6,63.7,29.95,SE,141,3.0,3.0,48,0.00,,,0.00,Wunderground v.1.15,2013-08-30 02:28:00,
2013-08-29 21:34:00,85.5,63.6,29.95,SE,141,3.0,4.0,48,0.00,,,0.00,Wunderground v.1.15,2013-08-30 02:34:00,
2013-08-29 21:40:00,85.4,64.1,29.95,SE,138,3.0,3.0,49,0.00,,,0.00,Wunderground v.1.15,2013-08-30 02:40:00,
2013-08-29 21:46:00,84.8,63.5,29.95,SE,145,2.0,3.0,49,0.00,,,0.00,Wunderground v.1.15,2013-08-30 02:46:00,
2013-08-29 21:52:00,84.6,63.9,29.96,SE,136,2.0,3.0,50,0.00,,,0.00,Wunderground v.1.15,2013-08-30 02:52:00,
2013-08-29 21:58:00,84.6,63.9,29.96,SE,132,2.0,3.0,50,0.00,,,0.00,Wunderground v.1.15,2013-08-30 02:58:00,
2013-08-29 22:04:00,84.3,64.2,29.96,SE,135,2.0,3.0,51,0.00,,,0.00,Wunderground v.1.15,2013-08-30 03:04:00,
2013-08-29 22:10:00,84.1,64.0,29.96,SSE,150,2.0,2.0,51,0.00,,,0.00,Wunderground v.1.15,2013-08-30 03:10:00,
2013-08-29 22:16:00,83.8,63.7,29.96,SE,134,2.0,3.0,51,0.00,,,0.00,Wunderground v.1.15,2013-08-30 03:16:00,
2013-08-29 22:22:00,83.8,63.7,29.96,SSE,150,2.0,3.0,51,0.00,,,0.00,Wunderground v.1.15,2013-08-30 03:22:00,
2013-08-29 22:28:00,83.3,63.8,29.96,SSE,148,2.0,3.0,52,0.00,,,0.00,Wunderground v.1.15,2013-08-30 03:28:00,
2013-08-29 22:34:00,82.9,64.0,29.96,SSE,150,1.0,3.0,53,0.00,,,0.00,Wunderground v.1.15,2013-08-30 03:34:00,
2013-08-29 22:40:00,82.8,63.9,29.95,SE,134,2.0,3.0,53,0.00,,,0.00,Wunderground v.1.15,2013-08-30 03:40:00,
2013-08-29 22:46:00,83.2,64.3,29.95,SE,130,2.0,3.0,53,0.00,,,0.00,Wunderground v.1.15,2013-08-30 03:46:00,
2013-08-29 22:52:00,83.3,63.8,29.95,SE,141,3.0,5.0,52,0.00,,,0.00,Wunderground v.1.15,2013-08-30 03:52:00,
2013-08-29 22:58:00,83.4,63.9,29.95,SSE,162,3.0,5.0,52,0.00,,,0.00,Wunderground v.1.15,2013-08-30 03:58:00,
2013-08-29 23:02:00,83.4,63.9,29.95,ESE,120,3.0,5.0,52,0.00,,,0.00,Wunderground v.1.15,2013-08-30 04:02:00,
2013-08-29 23:08:00,83.2,64.3,29.95,SSE,150,3.0,5.0,53,0.00,,,0.00,Wunderground v.1.15,2013-08-30 04:08:00,
2013-08-29 23:12:00,83.0,64.1,29.95,SSE,154,3.0,3.0,53,0.00,,,0.00,Wunderground v.1.15,2013-08-30 04:12:00,
2013-08-29 23:18:00,82.5,64.2,29.95,SE,141,3.0,3.0,54,0.00,,,0.00,Wunderground v.1.15,2013-08-30 04:18:00,
2013-08-29 23:22:00,82.3,64.0,29.95,SSE,150,3.0,3.0,54,0.00,,,0.00,Wunderground v.1.15,2013-08-30 04:22:00,
2013-08-29 23:28:00,82.3,64.5,29.95,SSE,163,3.0,4.0,55,0.00,,,0.00,Wunderground v.1.15,2013-08-30 04:28:00,
2013-08-29 23:34:00,81.9,64.1,29.95,SE,131,2.0,4.0,55,0.00,,,0.00,Wunderground v.1.15,2013-08-30 04:34:00,
2013-08-29 23:40:00,81.7,64.5,29.95,SSE,148,2.0,2.0,56,0.00,,,0.00,Wunderground v.1.15,2013-08-30 04:40:00,
2013-08-29 23:44:00,81.5,64.3,29.95,SE,139,2.0,3.0,56,0.00,,,0.00,Wunderground v.1.15,2013-08-30 04:44:00,
2013-08-29 23:50:00,81.2,64.5,29.96,SSE,152,2.0,2.0,57,0.00,,,0.00,Wunderground v.1.15,2013-08-30 04:50:00,
2013-08-29 23:56:00,80.8,64.6,29.95,SSE,150,2.0,3.0,58,0.00,,,0.00,Wunderground v.1.15,2013-08-30 04:56:00,